Location: Courcelles
(49.2596°N, 1.7419°E)
Time: 20:20:28
(UTC+00:00)

Cosmos 1943 Rocket - Pass Details

Date: 17 November 2025
Orbit: 812 x 841 km, 71.0° (Epoch: 05 December)

Event Time Altitude Azimuth Distance (km) Brightness Sun altitude
Rises 19:26:09 0° 249° (WSW) 3,376 6.2 -31.9°
Reaches altitude 10° 19:29:03 10° 263° (W) 2,441 5.4 -32.4°
Maximum altitude 19:33:34 24° 317° (NW) 1,646 4.1 -33.1°
Enters shadow 19:35:37 20° 348° (NNW) 1,838 4.1 -33.5°
